Regional Weather Roundup
Issued by NWS Little Rock, AR

Home | Current Version | Previous Version | Graphics & Text | Print | Product List | Glossary On
Versions: 1 2 3 4 5 6 7 8 9 10 11 12 13 14 15 16 17 18 19 20 21 22 23 24 25 26 27 28 29 30 31 32 33 34 35 36 37 38 39 40 41 42 43 44 45 46 47 48 49 50
432
ASUS44 KLZK 150612
RWRLZK

WEATHER ROUNDUP FOR ARKANSAS
NATIONAL WEATHER SERVICE LITTLE ROCK AR
1200 AM CST FRI DEC 15 2017

NOTE: "FAIR" INDICATES FEW OR NO CLOUDS BELOW 12,000 FEET WITH NO
SIGNIFICANT WEATHER AND/OR OBSTRUCTIONS TO VISIBILITY.

ARZ001-003-010-029-150700-
NORTHWEST ARKANSAS

CITY           SKY/WX    TMP DP  RH WIND       PRES   REMARKS
FAYETTEVILLE   PTCLDY    24  21  88 CALM      30.15S
6HR MIN TEMP:  23; 6HR MAX TEMP:  38;

FORT SMITH     CLEAR     33  26  75 SW3       30.19R
6HR MIN TEMP:  30; 6HR MAX TEMP:  44;

HARRISON       PTCLDY    33  24  69 W5        30.12S WCI  29
6HR MIN TEMP:  32; 6HR MAX TEMP:  38;

BENTONVILLE    MOCLDY    30  24  78 CALM      30.15S
6HR MIN TEMP:  29; 6HR MAX TEMP:  37;

ROGERS         CLOUDY    33  26  75 SW3       30.14S
6HR MIN TEMP:  30; 6HR MAX TEMP:  37;

SILOAM SPGS    CLEAR     27  23  85 CALM      30.15S
6HR MIN TEMP:  27; 6HR MAX TEMP:  35;

HIGHFILL       PTCLDY    27  23  85 CALM      30.13F
6HR MIN TEMP:  25; 6HR MAX TEMP:  36;

$$

ARZ004-005-016-150700-
NORTH CENTRAL ARKANSAS

CITY           SKY/WX    TMP DP  RH WIND       PRES   REMARKS
BATESVILLE     CLOUDY    32  25  75 NW3       30.16F
6HR MIN TEMP:  32; 6HR MAX TEMP:  38;

FLIPPIN        CLEAR     30  24  78 CALM      30.15S
6HR MIN TEMP:  30; 6HR MAX TEMP:  40;

$$

ARZ040-041-150700-
WEST CENTRAL ARKANSAS

CITY           SKY/WX    TMP DP  RH WIND       PRES   REMARKS
MENA           CLEAR     30  28  93 CALM      30.18S
MOUNT IDA      CLEAR     32  25  75 CALM      30.15S
6HR MIN TEMP:  32; 6HR MAX TEMP:  47;

$$

ARZ009-017-025-026-028-150700-
NORTHEAST ARKANSAS

CITY           SKY/WX    TMP DP  RH WIND       PRES   REMARKS
JONESBORO      CLOUDY    30  27  88 CALM      30.15F
6HR MIN TEMP:  30; 6HR MAX TEMP:  37;

NEWPORT        CLEAR     30  25  81 N6        30.17S WCI  24
6HR MIN TEMP:  27; 6HR MAX TEMP:  38;

WALNUT RIDGE   CLOUDY    32  28  85 S3        30.16S
6HR MIN TEMP:  30; 6HR MAX TEMP:  38;

BLYTHEVILLE    CLOUDY    28  26  92 NW5       30.16S WCI  23
6HR MIN TEMP:  24; 6HR MAX TEMP:  35;

$$

ARZ022-023-033-042-044-150700-
CENTRAL ARKANSAS

CITY           SKY/WX    TMP DP  RH WIND       PRES   REMARKS
LITTLE ROCK    CLEAR     35  24  64 NW5       30.19R WCI  31
6HR MIN TEMP:  35; 6HR MAX TEMP:  45;

N LITTLE ROCK    N/A     35  24  63 NW3       30.21R
6HR MIN TEMP:  35; 6HR MAX TEMP:  43;

JACKSONVILLE   CLEAR     28  21  76 W3        30.17R
6HR MIN TEMP:  28; 6HR MAX TEMP:  44;

SEARCY         CLEAR     29  24  82 CALM      30.18S
6HR MIN TEMP:  29; 6HR MAX TEMP:  42;

HOT SPRINGS    CLEAR     36  26  67 CALM      30.19R
6HR MIN TEMP:  36; 6HR MAX TEMP:  50;

RUSSELLVILLE   CLEAR     27  23  85 CALM      30.18R
6HR MIN TEMP:  27; 6HR MAX TEMP:  45;

CLINTON        FAIR      27  23  86 CALM      30.18R
$$

ARZ036-150700-
EAST ARKANSAS

CITY           SKY/WX    TMP DP  RH WIND       PRES   REMARKS
WEST MEMPHIS   CLEAR     29  26  89 NW7       30.15S WCI  22
6HR MIN TEMP:  28; 6HR MAX TEMP:  38;

$$

ARZ050-053-066-070-073-150700-
SOUTHWEST ARKANSAS

CITY           SKY/WX    TMP DP  RH WIND       PRES   REMARKS
ARKADELPHIA    FAIR      34  26  72 CALM      30.21R
6HR MIN TEMP:  34; 6HR MAX TEMP:  51;

CAMDEN         CLOUDY    37  25  60 N5        30.19S
TEXARKANA      CLEAR     40  28  62 N6        30.20R
6HR MIN TEMP:  40; 6HR MAX TEMP:  53;

EL DORADO      PTCLDY    41  33  73 N6        30.18R
6HR MIN TEMP:  41; 6HR MAX TEMP:  48;

DE QUEEN       CLEAR     29  27  92 CALM      30.19S
6HR MIN TEMP:  28; 6HR MAX TEMP:  50;

$$

ARZ056-057-069-150700-
SOUTHEAST ARKANSAS

CITY           SKY/WX    TMP DP  RH WIND       PRES   REMARKS
PINE BLUFF     CLEAR     35  26  69 N6        30.19R WCI  30
6HR MIN TEMP:  34; 6HR MAX TEMP:  46;

STUTTGART      CLEAR     32  26  78 N7        30.18R WCI  26
6HR MIN TEMP:  32; 6HR MAX TEMP:  42;

MONTICELLO     CLOUDY    40  28  62 N3        30.17R
6HR MIN TEMP:  39; 6HR MAX TEMP:  49;


$$






USA.gov is the U.S. government's official web portal to all federal, state and local government web resources and services.